Retour au catalogue

USA 459

ActifMilitaireVLEO
NORAD 62358·PAYLOAD·🇺🇸 United States

Lancé Dec 17, 2024 depuis Vandenberg Space Force Base

Loading…

Prochains Passages (prochaines 24 heures)

TLE

PériméSource: Mike McCants

Époque: Aug 20, 2026, 20:25 UTC

1 62358U 24243U   26232.85084661 0.00000000  00000-0  00000-0 0    05
2 62358  70.0200 134.4560 0002000 215.8499 144.1501 14.96713314    03

Suivez USA 459 en temps réel avec AllMySat

Download on the App Store